Peoria Heights, IL (61616)

12:00 PM CST on February 08, 2016 (GMT -0600)
Ricks Place Peoria Heights | | Change Station
CLOSE
Current Station
Personal Weather Station
Location: Peoria Heights, IL
Elevation: 775 ft
Nearby Weather Stations
Active Advisory: Special Statement

Elev 775 ft 40.74 °N, 89.58 °W | Updated 9 seconds ago

Snow
Snow
20.5 °F
Feels Like 9 °F
N
11.0
Wind Variable Wind from NW
Gusts 11.0 mph

Today
High -- | Low -- °F
--% Chance of Precip.
Yesterday
High -- | Low -- °F
Precip. -- in
Pressure 29.82 in
Visibility 1.0 miles
Clouds Overcast 1800 ft
Windchill 9 °F
Dew Point 15 °F
Humidity 78%
Rainfall 0.00 in
Snow Depth Not available.
7:01 AM 5:24 PM
New Moon, 0% visible
METAR KPIA 081754Z 30013G20KT 1SM R13/5000VP6000FT -SN OVC018 M06/M10 A2980 RMK AO2 SLP098 P0001 60001 T10611100 11022 21061 53003
Pressure 29.82 in
Visibility 1.0 miles
Clouds Overcast 1800 ft
Windchill 9 °F
Dew Point 15 °F
Humidity 78%
Rainfall 0.00 in
Snow Depth Not available.
7:01 AM 5:24 PM
New Moon, 0% visible
METAR KPIA 081754Z 30013G20KT 1SM R13/5000VP6000FT -SN OVC018 M06/M10 A2980 RMK AO2 SLP098 P0001 60001 T10611100 11022 21061 53003

10-Day Weather Forecast

Almanac

Astronomy

Feb. 08, 2016 Rise Set
Actual Time
Civil Twilight
Nautical Twilight
Astronomical Twilight
Moon
Length of Visible Light
Length of Day
Tomorrow will be .
, % of the Moon is Illuminated

Today's Extremes

State Highs State Lows

Community

WunderPhotos

Upload Photos

1,891,476 photos uploaded!

WunderBlog® & News

Nearby

Air Quality

  Air Quality AQ Index Pollutant
Not available.

Snow Depth

Station Depth Elevation

Earthquake Activity

City Distance Mag. Time & Date
Minimum magnitude displayed is 2.5.

Coastal Water Temperatures

Place Temperature

Stations

Nearby Weather Stations

Station Location Temp. Windchill Dew Point Humidity Wind Precip. Elev Updated Type
                   

Watches & Warnings

Special Statement
Issued: 9:38 AM CST Feb. 8, 2016 – National Weather Service

Scattered snow showers will continue across central and southeast
Illinois through the afternoon. While accumulations will remain
minor... slick spots will develop on many area roadways as
temperatures fall through the 20s. Motorists are advised to drive
with caution. Slow down and plan on extra time to arrive at your
destination today.


Barnes

938 am CST Mon Feb 8 2016

Scattered snow showers will continue across central and southeast
Illinois through the afternoon. While accumulations will remain
minor... slick spots will develop on many area roadways as
temperatures fall through the 20s. Motorists are advised to drive
with caution. Slow down and plan on extra time to arrive at your
destination today.


Barnes